GW3646 Weather Reports


time (UTC)temp
C
wind
direction
speed
KPH
gust
KPH
rain 1hr
cm
rain 24hr
cm
rain mn
cm
humidity
%
barometer
mb
20260505101006 12 66 6.4 30.6 0.00 0.00 0.00 63 1005.3
20260505100504 12 58 8.0 30.6 0.00 0.00 0.00 65 1005.3
20260505100021 12 64 6.4 24.1 0.00 0.00 0.00 66 1005.3
20260505095503 12 43 8.0 22.5 0.00 0.00 0.00 66 1005.2
20260505095002 12 59 11.3 33.8 0.00 0.00 0.00 66 1005.1
20260505094509 12 86 14.5 33.8 0.00 0.00 0.00 66 1005.0
20260505094006 12 67 9.7 32.2 0.00 0.00 0.00 67 1004.8
20260505093507 12 82 9.7 32.2 0.00 0.00 0.00 68 1004.9
20260505093021 12 91 8.0 27.4 0.00 0.00 0.00 68 1004.8
20260505092508 12 348 11.3 25.7 0.00 0.00 0.00 69 1004.8
20260505092010 13 57 8.0 25.7 0.00 0.00 0.00 72 1004.9
20260505091520 13 76 12.9 25.7 0.00 0.00 0.00 71 1004.8
20260505091008 13 55 9.7 24.1 0.00 0.00 0.00 70 1004.9
20260505090508 13 67 6.4 24.1 0.00 0.00 0.00 70 1004.9
20260505090023 13 94 8.0 22.5 0.00 0.00 0.00 69 1004.7
20260505085508 13 75 9.7 22.5 0.00 0.00 0.00 69 1004.6
20260505085003 13 34 9.7 22.5 0.00 0.00 0.00 70 1004.5
20260505084508 14 88 9.7 22.5 0.00 0.00 0.00 70 1004.4
20260505084003 14 82 8.0 22.5 0.00 0.00 0.00 71 1004.3
20260505083503 15 57 6.4 19.3 0.00 0.00 0.00 72 1004.3
20260505083018 15 47 8.0 17.7 0.00 0.00 0.00 75 1004.2
20260505082508 15 69 6.4 17.7 0.00 0.00 0.00 77 1004.1
20260505082007 15 14 6.4 19.3 0.00 0.00 0.00 77 1004.0
20260505081520 15 65 6.4 22.5 0.00 0.00 0.00 77 1004.1
20260505081007 16 72 6.4 22.5 0.00 0.00 0.00 77 1003.9
20260505080509 16 69 6.4 20.9 0.00 0.00 0.00 76 1003.8
20260505080023 16 62 8.0 20.9 0.00 0.00 0.00 75 1003.7
20260505075508 17 79 9.7 16.1 0.00 0.00 0.00 73 1003.7
20260505075011 17 55 6.4 16.1 0.00 0.00 0.00 71 1003.6
20260505074528 17 59 8.0 16.1 0.00 0.00 0.00 71 1003.5
20260505074012 18 67 4.8 16.1 0.00 0.00 0.00 71 1003.4
20260505073504 18 61 6.4 17.7 0.00 0.00 0.00 71 1003.3
20260505073029 18 77 4.8 17.7 0.00 0.00 0.00 70 1003.4
20260505072507 18 65 4.8 24.1 0.00 0.00 0.00 71 1003.4
20260505072004 19 84 9.7 24.1 0.00 0.00 0.00 74 1003.5
20260505071514 19 69 0.0 4.8 0.00 0.00 0.00 75 1003.3
20260505071006 19 53 0.0 4.8 0.00 0.00 0.00 75 1003.2
20260505070512 19 53 1.6 4.8 0.00 0.00 0.00 74 1003.1
20260505070019 19 53 0.0 4.8 0.00 0.00 0.00 74 1003.1
20260505065510 19 53 1.6 4.8 0.00 0.00 0.00 74 1003.1
20260505065007 19 53 0.0 0.0 0.00 0.00 0.00 74 1003.0
20260505064523 19 53 0.0 4.8 0.00 0.00 0.00 73 1003.1
20260505064009 19 53 0.0 4.8 0.00 0.00 0.00 73 1003.0
20260505063508 19 53 1.6 9.7 0.00 0.00 0.00 73 1003.0
20260505063026 19 336 0.0 9.7 0.00 0.00 0.00 73 1003.1
20260505062512 19 88 0.0 4.8 0.00 0.00 0.00 73 1002.8
20260505062006 19 88 1.6 4.8 0.00 0.00 0.00 72 1002.7
20260505061520 20 88 1.6 4.8 0.00 0.00 0.00 72 1002.7
20260505061003 20 88 0.0 1.6 0.00 0.00 0.00 73 1002.6
20260505060508 20 88 0.0 1.6 0.00 0.00 0.00 72 1002.4
20260505060018 20 88 0.0 3.2 0.00 0.00 0.00 71 1002.4
20260505055509 20 88 0.0 4.8 0.00 0.00 0.00 71 1002.5
20260505055013 20 46 0.0 4.8 0.00 0.00 0.00 71 1002.4
20260505054524 20 46 0.0 8.0 0.00 0.00 0.00 71 1002.5
20260505054010 20 55 0.0 8.0 0.00 0.00 0.00 71 1002.3
20260505053510 21 23 0.0 9.7 0.00 0.00 0.00 70 1002.2
20260505053036 21 327 0.0 9.7 0.00 0.00 0.00 69 1002.1
20260505052507 21 278 1.6 12.9 0.00 0.00 0.00 68 1001.9
20260505052013 21 283 3.2 12.9 0.00 0.00 0.00 67 1001.8
20260505051537 21 248 3.2 11.3 0.00 0.00 0.00 68 1001.6
20260505051007 21 248 3.2 11.3 0.00 0.00 0.00 68 1001.6
20260505050504 20 245 3.2 16.1 0.00 0.00 0.00 70 1001.5
20260505041527 20 275 0.0 3.2 0.00 0.00 0.00 73 1001.7
20260505041015 20 275 0.0 6.4 0.00 0.00 0.00 73 1001.7
20260505040512 21 270 0.0 6.4 0.00 0.00 0.00 72 1001.7
20260505040029 21 200 0.0 4.8 0.00 0.00 0.00 72 1002.0
20260505035515 21 279 0.0 0.0 0.00 0.00 0.00 71 1002.1
20260505035007 21 279 0.0 0.0 0.00 0.00 0.00 70 1002.0
20260505034519 21 279 0.0 0.0 0.00 0.00 0.00 70 1001.8
20260505034015 21 279 0.0 0.0 0.00 0.00 0.00 68 1001.8
20260505033506 22 279 0.0 4.8 0.00 0.00 0.00 68 1001.8
20260505033020 22 265 0.0 6.4 0.00 0.00 0.00 68 1002.1
20260505032508 22 304 0.0 6.4 0.00 0.00 0.00 68 1001.9
20260505032008 22 280 0.0 9.7 0.00 0.00 0.00 67 1002.0
20260505031531 22 293 3.2 9.7 0.00 0.00 0.00 67 1002.1
20260505031006 22 286 1.6 9.7 0.00 0.00 0.00 67 1002.1
20260505030505 22 263 0.0 9.7 0.00 0.00 0.00 66 1002.1
20260505030006 22 307 0.0 6.4 0.00 0.00 0.00 66 1002.1
20260505025503 22 262 0.0 6.4 0.00 0.00 0.00 66 1002.1
20260505025004 22 173 0.0 3.2 0.00 0.00 0.00 66 1002.3
20260505024507 22 285 0.0 3.2 0.00 0.00 0.00 65 1002.3
20260505024003 22 17 0.0 4.8 0.00 0.00 0.00 65 1002.1
20260505023502 22 315 0.0 6.4 0.00 0.00 0.00 64 1002.0
20260505023011 22 265 0.0 6.4 0.00 0.00 0.00 63 1002.1
20260505022502 22 294 0.0 6.4 0.00 0.00 0.00 63 1002.2
20260505022002 23 266 0.0 6.4 0.00 0.00 0.00 63 1002.2
20260505021504 23 311 1.6 6.4 0.00 0.00 0.00 62 1002.1
20260505021004 23 284 1.6 6.4 0.00 0.00 0.00 62 1002.2
20260505020503 23 253 1.6 9.7 0.00 0.00 0.00 61 1002.4
20260505020004 23 276 1.6 9.7 0.00 0.00 0.00 61 1002.3
20260505015503 23 259 1.6 4.8 0.00 0.00 0.00 60 1002.2
20260505015003 23 286 0.0 6.4 0.00 0.00 0.00 60 1001.8
20260505014505 23 291 1.6 6.4 0.00 0.00 0.00 59 1001.6
20260505014002 23 297 0.0 11.3 0.00 0.00 0.00 59 1001.7
20260505013503 23 254 1.6 11.3 0.00 0.00 0.00 58 1001.6
20260505013006 23 205 1.6 9.7 0.00 0.00 0.00 57 1001.6
20260505012502 23 229 1.6 9.7 0.00 0.00 0.00 56 1001.5
20260505012004 23 347 1.6 11.3 0.00 0.00 0.00 56 1001.4
20260505011509 23 269 3.2 11.3 0.00 0.00 0.00 56 1001.3
20260505011003 23 276 0.0 9.7 0.00 0.00 0.00 55 1001.5
20260505010502 24 263 0.0 9.7 0.00 0.00 0.00 55 1001.3
20260505010014 24 266 0.0 11.3 0.00 0.00 0.00 55 1001.2
20260505005503 24 274 3.2 11.3 0.00 0.00 0.00 54 1001.4
20260505005004 24 285 1.6 11.3 0.00 0.00 0.00 54 1001.1
20260505004506 25 202 0.0 6.4 0.00 0.00 0.00 53 1001.2
20260505004003 25 300 1.6 6.4 0.00 0.00 0.00 52 1001.3
20260505003502 25 268 0.0 9.7 0.00 0.00 0.00 52 1001.3
20260505003009 25 265 0.0 9.7 0.00 0.00 0.00 51 1001.3
20260505002504 25 265 1.6 8.0 0.00 0.00 0.00 51 1001.3
20260505002004 25 286 0.0 8.0 0.00 0.00 0.00 51 1001.4
20260505001508 25 300 0.0 9.7 0.00 0.00 0.00 51 1001.4
20260505001003 25 252 3.2 9.7 0.00 0.00 0.00 49 1001.3
20260505000505 26 261 1.6 9.7 0.00 0.00 0.00 49 1001.3
20260505000008 26 349 1.6 11.3 0.00 0.00 0.00 49 1001.3
20260504235502 26 182 1.6 12.9 0.00 0.00 0.00 48 1001.4
20260504235003 26 242 3.2 12.9 0.00 0.00 0.00 48 1001.5
20260504234507 26 289 0.0 9.7 0.00 0.00 0.00 47 1001.6
20260504234004 26 190 0.0 11.3 0.00 0.00 0.00 47 1001.6
20260504233503 26 265 4.8 20.9 0.00 0.00 0.00 46 1001.6
20260504233008 26 194 4.8 20.9 0.00 0.00 0.00 47 1001.7
20260504232505 26 232 1.6 16.1 0.00 0.00 0.00 47 1001.8
20260504232008 26 200 6.4 16.1 0.00 0.00 0.00 45 1001.7
20260504231510 26 257 4.8 14.5 0.00 0.00 0.00 45 1001.7
20260504231004 26 215 3.2 16.1 0.00 0.00 0.00 44 1001.5
20260504230504 27 265 1.6 16.1 0.00 0.00 0.00 43 1001.5
20260504230009 27 134 4.8 16.1 0.00 0.00 0.00 43 1001.7
20260504225504 27 232 6.4 16.1 0.00 0.00 0.00 42 1001.7
20260504225005 27 263 3.2 16.1 0.00 0.00 0.00 43 1001.5
20260504224511 27 266 3.2 16.1 0.00 0.00 0.00 43 1001.6
20260504224004 27 288 3.2 14.5 0.00 0.00 0.00 42 1001.6
20260504223503 27 244 3.2 17.7 0.00 0.00 0.00 42 1001.5
20260504223008 27 247 3.2 17.7 0.00 0.00 0.00 41 1001.7
20260504222504 27 142 6.4 17.7 0.00 0.00 0.00 41 1001.6
20260504222003 28 239 1.6 19.3 0.00 0.00 0.00 41 1001.5
20260504221520 28 264 6.4 19.3 0.00 0.00 0.00 40 1001.6
20260504221004 28 221 4.8 14.5 0.00 0.00 0.00 39 1001.5
20260504220504 28 263 3.2 24.1 0.00 0.00 0.00 40 1001.6
20260504220010 28 170 6.4 24.1 0.00 0.00 0.00 39 1001.8
20260504215507 28 246 4.8 20.9 0.00 0.00 0.00 39 1001.8
20260504215009 28 300 4.8 20.9 0.00 0.00 0.00 40 1001.8
20260504214512 28 180 8.0 20.9 0.00 0.00 0.00 38 1001.9
20260504214003 28 270 3.2 20.9 0.00 0.00 0.00 38 1001.9
20260504213503 28 266 6.4 19.3 0.00 0.00 0.00 40 1002.0
20260504213016 28 241 4.8 16.1 0.00 0.00 0.00 38 1002.0
20260504212504 28 275 3.2 17.7 0.00 0.00 0.00 39 1002.0
20260504212005 28 250 6.4 17.7 0.00 0.00 0.00 38 1002.0
20260504211508 28 198 4.8 16.1 0.00 0.00 0.00 39 1002.1
20260504211004 28 44 3.2 16.1 0.00 0.00 0.00 40 1002.1
20260504210504 28 234 6.4 16.1 0.00 0.00 0.00 39 1002.2
20260504210012 28 258 6.4 16.1 0.00 0.00 0.00 38 1002.3
20260504205507 29 258 6.4 14.5 0.00 0.00 0.00 38 1002.4
20260504205003 29 237 4.8 17.7 0.00 0.00 0.00 37 1002.2
20260504204514 30 237 3.2 17.7 0.00 0.00 0.00 36 1002.4
20260504204003 30 214 4.8 14.5 0.00 0.00 0.00 38 1002.4
20260504203506 30 142 6.4 14.5 0.00 0.00 0.00 35 1002.5
20260504203014 30 282 3.2 16.1 0.00 0.00 0.00 37 1002.5
20260504202504 30 146 4.8 16.1 0.00 0.00 0.00 36 1002.4
20260504202005 30 170 3.2 14.5 0.00 0.00 0.00 36 1002.6
20260504201513 30 148 3.2 14.5 0.00 0.00 0.00 35 1002.7
20260504201005 30 243 3.2 14.5 0.00 0.00 0.00 36 1002.7
20260504200509 30 98 1.6 11.3 0.00 0.00 0.00 35 1002.7
20260504200012 30 172 4.8 20.9 0.00 0.00 0.00 36 1002.8
20260504195506 30 163 4.8 20.9 0.00 0.00 0.00 34 1002.9
20260504195003 30 255 3.2 14.5 0.00 0.00 0.00 35 1003.0
20260504194513 30 207 6.4 20.9 0.00 0.00 0.00 34 1003.0
20260504194003 30 206 3.2 25.7 0.00 0.00 0.00 35 1003.0
20260504193508 30 259 8.0 25.7 0.00 0.00 0.00 34 1003.1
20260504193015 30 254 4.8 16.1 0.00 0.00 0.00 33 1003.2
20260504192508 30 137 4.8 11.3 0.00 0.00 0.00 35 1003.4
20260504192007 30 224 4.8 11.3 0.00 0.00 0.00 36 1003.4
20260504191527 29 263 1.6 11.3 0.00 0.00 0.00 36 1003.4
20260504191006 29 275 1.6 14.5 0.00 0.00 0.00 35 1003.5
20260504190504 29 213 3.2 14.5 0.00 0.00 0.00 36 1003.5
20260504190016 29 304 4.8 12.9 0.00 0.00 0.00 36 1003.5
20260504185507 29 265 3.2 12.9 0.00 0.00 0.00 36 1003.6
20260504185007 29 261 3.2 12.9 0.00 0.00 0.00 35 1003.6
20260504184517 28 272 4.8 12.9 0.00 0.00 0.00 38 1003.6
20260504184007 28 285 3.2 14.5 0.00 0.00 0.00 37 1003.5
20260504183506 28 236 3.2 14.5 0.00 0.00 0.00 37 1003.7
20260504183017 28 232 4.8 14.5 0.00 0.00 0.00 36 1003.7
20260504182508 28 9 4.8 14.5 0.00 0.00 0.00 37 1003.7
20260504182009 28 272 3.2 14.5 0.00 0.00 0.00 37 1003.9
20260504181521 28 290 6.4 14.5 0.00 0.00 0.00 38 1004.0
20260504181007 28 138 1.6 12.9 0.00 0.00 0.00 39 1004.0
20260504180507 28 298 3.2 12.9 0.00 0.00 0.00 38 1004.2
20260504180020 27 151 1.6 11.3 0.00 0.00 0.00 39 1004.2
20260504175507 27 258 1.6 11.3 0.00 0.00 0.00 39 1004.2
20260504175006 27 249 1.6 12.9 0.00 0.00 0.00 41 1004.3
20260504174516 27 319 4.8 12.9 0.00 0.00 0.00 39 1004.2
20260504174007 27 259 1.6 12.9 0.00 0.00 0.00 39 1004.3
20260504173506 27 324 3.2 12.9 0.00 0.00 0.00 39 1004.2
20260504173015 27 247 1.6 12.9 0.00 0.00 0.00 38 1004.2
20260504172507 27 223 3.2 12.9 0.00 0.00 0.00 42 1004.2
20260504172008 27 254 1.6 12.9 0.00 0.00 0.00 41 1004.2
20260504171525 26 229 4.8 12.9 0.00 0.00 0.00 40 1004.3
20260504171010 26 242 3.2 11.3 0.00 0.00 0.00 41 1004.2
20260504170506 26 101 1.6 19.3 0.00 0.00 0.00 42 1004.2
20260504151007 21 247 8.0 19.3 0.00 0.00 0.00 50 1004.6
20260504150507 21 263 4.8 24.1 0.00 0.00 0.00 52 1004.7
20260504141009 19 234 4.8 16.1 0.00 0.00 0.00 54 1004.9
20260504140504 19 262 3.2 17.7 0.00 0.00 0.00 55 1005.0
20260504130506 17 275 3.2 16.1 0.00 0.00 0.00 59 1005.1
20260504110513 17 248 6.4 19.3 0.00 0.00 0.00 55 1005.1